STARLINK-2592, 48408

Orbit data source: Space-Track

STARLINK-2592, 48408 is a payload satellite owned by SpaceX/Seattle (US) in LEO that was launched on Tue, 04 May 2021 UTC via an FALCON 9 launch vehicle from the Air Force Eastern Test Range (AFETR). Payload-class satellites include a variety of spacecraft equipped with specific instruments for various scientific and technological missions. These include communications satellites like Starlink; space stations such as the ISS; scientific satellites like the Hubble; Earth observation satellites from companies like Planet Labs, Umbra, and HawkEye 360; GPS; miniature CubeSats for education and research; and military/defense satellites.

Loading next visibility...
Identifier
48408, 2021-038BH
Orbit
LEO
Country
Flag of USUS
Related business
Manufacturer
SpaceX/Seattle
Mission
Operational Commercial Communications
Bus & Motor
STARLINK, Unknown motor
Mass
260 kg wet, ~248 kg dry
Launch date (UTC)
2021-05-04 (5 years ago)
Launch vehicle
FALCON 9
Launch site
Air Force Eastern Test Range (AFETR)
Object type
Payload
Rocket body
Debris
Shape & HBR
Box + 1 Pan, 10.1 m
Radar Cross Section
13.562 m², Large (>1 m²)

Expand to show TLE details & history
Last TLE update: 2 days ago

TLE from 2 days ago
0 STARLINK-2592
1 48408U 21038BH  26171.39118382  .00002235  00000-0  83741-4 0  9999
2 48408  53.1570 215.3656 0001185  76.3283 283.7851 15.31708169283164
Epoch: 2026-06-20T09:23Z
TLE epoch observation values (Epoch: 2026-06-20T09:23:18.282Z)
Latitude
0.00006°
Longitude
165.93299°
Altitude
471.422 km
Speed
7.632 km/s
True Right ascension
14h 21m 27s
True Declination
0° 00' 00"
Sunlit
Object was in full shadow at epoch
Visualization orbit readout
Latitude
Unknown
Longitude
Unknown
Altitude
Unknown
Speed
Unknown
Apparent Right ascension
Unknown
Apparent Declination
Unknown
Sunlit
N/A
Visualization observer readout
Local Sidereal Time
21:28:43
Azimuth
Unknown
Elevation
Unknown
Doppler factor
Unknown
Orbital elements
Apogee altitude
471.784 km
Perigee altitude
470.161 km
Semi-major axis
6,849.11 km
Eccentricity
0.00012
Inclination
53.157°
RAAN
215.3656°
Arg. of periapsis
76.3283°
True anomaly
283.77191°
Mean anomaly
283.7851°
Eccentric anomaly
283.77851°
Mean motion
3.82906 °/min
Orbital period
94.02 mins
BSTAR
0.000083741
Loading maneuver chart data...
Computing Atmospheric mass density...

Documentation

Showing up to 5 results
|